[[{"header":{"parameterUnit":"m.s-1","parameterCategory":1,"la1":30.2991,"la2":30.254,"lo1":-89.0895,"lo2":-89.0444,"dy":0.0017,"dx":0.0017,"nx":28,"ny":28,"refTime":"2025-03-28T03:00:00:Z","depth":0,"parameterNumber":2,"parameterNumberName":"U-component_of_WINDS"},"data":[0,0,0,0,0,0,0,0,0,0,0,0,0,0,0,0,0,0,0,0,0,0,0,0,0,0,0,0,0,0,0,0,0,0,0,0,0,0,0,0,0,0,0,0,0,0,0,0,0,0,0,0,0,0,0,0,0,0,-6.3972,-6.3973,0,-6.4057,-6.4058,-6.4059,-6.4043,-6.4041,-6.4039,-6.4038,-6.4122,-6.4125,-6.4129,0,0,0,0,0,0,0,0,0,0,0,0,0,-6.3795,-6.3798,-6.3972,-6.3973,-6.3974,-6.4057,-6.4058,-6.4059,-6.4043,-6.4041,-6.4039,-6.4037,-6.412,-6.4125,-6.4129,0,0,0,0,0,0,0,0,0,0,0,0,0,-6.3875,-6.3799,-6.3972,-6.3976,-6.3977,-6.4057,-6.4058,-6.4059,-6.4043,-6.4041,-6.4039,-6.4036,-6.4119,-6.4124,-6.413,-6.4209,0,0,-6.4146,-6.4149,0,0,0,0,0,0,0,0,-6.387,-6.3881,-6.3974,-6.3976,-6.3977,-6.4037,-6.4026,-6.4109,-6.4044,-6.4018,-6.4038,-6.4035,-6.4095,-6.4102,-6.4123,-6.4213,-6.4216,-6.4147,-6.415,-6.4152,-6.4154,0,0,0,0,0,0,0,-6.3865,-6.3878,-6.4005,-6.3976,-6.3978,-6.3973,-6.3982,-6.4042,-6.4068,-6.402,-6.4019,-6.403,-6.4095,-6.4118,-6.4125,-6.4217,-6.4147,-6.4151,-6.4155,-6.4157,-6.4378,-6.438,0,0,0,0,0,0,-6.3858,-6.3873,-6.4003,-6.4008,-6.3917,-6.3978,-6.3988,-6.402,-6.4067,-6.4073,-6.4031,-6.4029,-6.411,-6.4119,-6.4128,-6.4223,-6.4152,-6.4157,-6.4161,-6.4375,-6.4378,-6.4381,0,0,0,0,0,0,-6.3854,-6.387,-6.3999,-6.394,-6.3957,-6.3984,-6.402,-6.4023,-6.4045,-6.4076,-6.408,-6.405,-6.4108,-6.412,-6.4189,-6.4226,-6.416,-6.4165,-6.4372,-6.4376,-6.438,-6.4415,0,0,0,0,0,0,-6.3849,-6.3869,-6.3899,-6.3941,-6.396,-6.406,-6.4022,-6.4026,-6.4055,-6.4052,-6.4094,-6.4099,-6.4107,-6.4181,-6.4195,-6.4232,-6.4169,-6.4369,-6.4374,-6.4379,-6.4411,-6.442,-6.4428,0,0,0,0,0,-6.3843,-6.3905,-6.3901,-6.3916,-6.3998,-6.4062,-6.4072,-6.4081,-6.4058,-6.4089,-6.4109,-6.4098,-6.4221,-6.4188,-6.4203,-6.4243,-6.4367,-6.4373,-6.4378,-6.4407,-6.4418,-6.4428,0,0,0,0,0,0,-6.3864,-6.391,-6.3906,-6.3983,-6.4019,-6.4059,-6.4097,-6.4093,-6.4135,-6.413,-6.4139,-6.4149,-6.4219,-6.4239,-6.4202,-6.4323,-6.429,-6.4299,-6.4307,-6.4318,-6.4326,-6.4318,-6.4174,0,0,0,0,0,-6.3878,-6.3926,-6.3964,-6.4028,-6.4047,-6.4069,-6.4097,-6.4102,-6.4139,-6.4153,-6.4178,-6.4214,-6.4261,-6.4291,-6.4336,-6.4415,-6.4424,-6.445,-6.4459,-6.4466,-6.4472,-6.4516,-6.4528,-6.44,-6.44,-6.44,0,0,-6.3906,-6.3937,-6.3967,-6.4033,-6.4061,-6.4111,-6.4082,-6.4135,-6.4171,-6.4161,-6.4227,-6.4248,-6.4288,-6.4363,-6.4398,-6.4382,-6.451,-6.4473,-6.4478,-6.4481,-6.4523,-6.4535,-6.4546,-6.4404,-6.4404,-6.4403,0,0,-6.3982,-6.4011,-6.4068,-6.4098,-6.4142,-6.4157,-6.4172,-6.4213,-6.4227,-6.4295,-6.4288,-6.4332,-6.4413,-6.4442,-6.4467,-6.4559,-6.455,-6.4574,-6.4616,-6.4659,-6.4669,-6.4678,-6.4709,-6.4721,-6.4581,-6.4581,-6.4581,0,-6.4011,-6.4085,-6.4098,-6.4152,-6.4182,-6.4178,-6.4235,-6.4263,-6.4319,-6.4339,-6.4322,-6.4424,-6.4451,-6.4533,-6.4555,-6.4577,-6.4592,-6.4567,-6.4667,-6.4676,-6.4684,-6.4714,-6.4726,-6.4584,-6.4583,-6.4583,-6.4583,0,-6.4118,-6.4171,-6.4212,-6.4267,-6.4302,-6.4358,-6.4378,-6.4412,-6.4415,-6.4432,-6.4502,-6.4535,-6.4587,-6.4608,-6.461,-6.4691,-6.4679,-6.4665,-6.4631,-6.4699,-6.4727,-6.4739,-6.4587,-6.4586,-6.4586,-6.4585,0,0,-6.4205,-6.427,-6.4285,-6.4311,-6.4361,-6.4401,-6.4458,-6.451,-6.4538,-6.4579,-6.4625,-6.4696,-6.4683,-6.4712,-6.4719,-6.4757,-6.4826,-6.4737,-6.4738,-6.4751,-6.4916,-6.4925,-6.4938,-6.4823,-6.4825,-6.4827,-6.4912,0,-6.4284,-6.4384,-6.4399,-6.4487,-6.4535,-6.4534,-6.4583,-6.4619,-6.4638,-6.4682,-6.4703,-6.4752,-6.4732,-6.475,-6.4788,-6.481,-6.4859,-6.4804,-6.4865,-6.4867,-6.4851,-6.4953,-6.4962,-6.5041,-6.4924,-6.4926,-6.4927,0,-6.4389,-6.4434,-6.4527,-6.4572,-6.4593,-6.4637,-6.4687,-6.4729,-6.4771,-6.4782,-6.4817,-6.482,-6.4878,-6.4846,-6.4926,-6.4889,-6.4915,-6.493,-6.4934,-6.4937,-6.4898,-6.4957,-6.5067,-6.5078,-6.4945,-6.4944,-6.4942,0,-6.4441,-6.4525,-6.4591,-6.4614,-6.4669,-6.47,-6.4724,-6.4764,-6.4795,-6.4839,-6.486,-6.491,-6.4937,-6.4976,-6.4992,-6.4967,-6.5072,-6.504,-6.5081,-6.5081,-6.51,-6.5098,-6.5213,-6.5122,-6.5122,-6.5122,-6.5122,0,-6.4526,-6.4582,-6.4616,-6.4656,-6.472,-6.4737,-6.48,-6.4823,-6.4859,-6.4904,-6.4908,-6.495,-6.497,-6.5016,-6.503,-6.5094,-6.5107,-6.5117,-6.5119,-6.5115,-6.5113,-6.5129,-6.5123,-6.5125,-6.5124,-6.5124,-6.5123,0,-6.4593,-6.4617,-6.469,-6.4738,-6.4751,-6.4796,-6.4836,-6.4876,-6.4896,-6.4954,-6.4968,-6.5,-6.5054,-6.5075,-6.5141,-6.515,-6.5224,-6.5224,-6.521,-6.521,-6.5249,-6.5244,-6.5376,-6.5394,-6.5294,-6.5295,-6.5295,0,-6.4644,-6.4688,-6.4741,-6.4772,-6.4798,-6.4848,-6.488,-6.49,-6.4934,-6.4987,-6.502,-6.5075,-6.5119,-6.5206,-6.5234,-6.5285,-6.5284,-6.5327,-6.5291,-6.5286,-6.5282,-6.5278,-6.5282,-6.5332,-6.5333,-6.5334,-6.5334,0,-6.4731,-6.4742,-6.479,-6.4842,-6.4882,-6.4923,-6.4964,-6.499,-6.5016,-6.5054,-6.511,-6.5145,-6.5214,-6.5267,-6.5321,-6.5345,-6.5344,-6.5346,-6.5358,-6.5352,-6.5342,-6.5346,-6.5225,-6.5342,-6.5341,-6.5341,-6.534,-6.534,-6.4791,-6.483,-6.4874,-6.4927,-6.4961,-6.4999,-6.5039,-6.5066,-6.5114,-6.5171,-6.5181,-6.5241,-6.5284,-6.5355,-6.5383,-6.543,-6.5418,-6.5436,-6.544,-6.5443,-6.5445,-6.5338,-6.544,-6.544,-6.544,-6.5439,-6.5439,0,-6.4877,-6.4906,-6.4955,-6.5013,-6.5055,-6.5054,-6.51,-6.5135,-6.5188,-6.5228,-6.5273,-6.5338,-6.5391,-6.5426,-6.5479,-6.5511,-6.5511,-6.5524,-6.552,-6.5526,-6.5453,-6.5436,-6.5522,-6.5522,-6.5522,-6.5522,-6.5522,-6.5522,-6.4926,-6.4992,-6.5009,-6.5093,-6.5122,-6.5181,-6.5207,-6.5243,-6.5276,-6.5349,-6.5394,-6.5417,-6.5455,-6.5512,-6.5561,-6.557,-6.5589,-6.5601,-6.5609,-6.5539,-6.5531,-6.5522,-6.5507,-6.5606,-6.5606,-6.5678,-6.5678,-6.5679]},{"header":{"parameterUnit":"m.s-1","parameterCategory":1,"la1":30.2991,"la2":30.254,"lo1":-89.0895,"lo2":-89.0444,"dy":0.0017,"dx":0.0017,"nx":28,"ny":28,"refTime":"2025-03-28T03:00:00:Z","depth":0,"parameterNumber":3,"parameterNumberName":"V-component_of_WINDS"},"data":[0,0,0,0,0,0,0,0,0,0,0,0,0,0,0,0,0,0,0,0,0,0,0,0,0,0,0,0,0,0,0,0,0,0,0,0,0,0,0,0,0,0,0,0,0,0,0,0,0,0,0,0,0,0,0,0,0,0,3.4582,3.4582,0,3.4668,3.4669,3.467,3.4718,3.4718,3.4718,3.4719,3.4804,3.4806,3.4808,0,0,0,0,0,0,0,0,0,0,0,0,0,3.4457,3.4459,3.4581,3.4583,3.4584,3.4668,3.4669,3.467,3.4718,3.4718,3.4719,3.4719,3.4803,3.4806,3.4808,0,0,0,0,0,0,0,0,0,0,0,0,0,3.4524,3.446,3.4581,3.4618,3.4622,3.4668,3.4669,3.4671,3.4718,3.4718,3.4719,3.4719,3.4802,3.4805,3.4809,3.4823,0,0,3.4818,3.482,0,0,0,0,0,0,0,0,3.452,3.4528,3.4611,3.4615,3.462,3.4683,3.4656,3.4722,3.4718,3.4681,3.4719,3.4719,3.4763,3.4769,3.4785,3.4827,3.4831,3.4819,3.482,3.4822,3.4823,0,0,0,0,0,0,0,3.4515,3.4525,3.4616,3.4612,3.4618,3.463,3.4639,3.4669,3.472,3.4685,3.4688,3.4698,3.4765,3.4782,3.4787,3.4832,3.4818,3.4821,3.4823,3.4824,3.4895,3.4895,0,0,0,0,0,0,3.4505,3.4521,3.4613,3.4618,3.457,3.4632,3.4643,3.4662,3.472,3.4729,3.4698,3.47,3.4776,3.4784,3.4791,3.4814,3.4822,3.4825,3.4827,3.4895,3.4895,3.4895,0,0,0,0,0,0,3.4502,3.4513,3.4609,3.4571,3.4584,3.4634,3.4655,3.4664,3.468,3.473,3.4739,3.4705,3.4777,3.4786,3.4816,3.4818,3.4826,3.4829,3.4895,3.4895,3.4895,3.486,0,0,0,0,0,0,3.4498,3.4512,3.4518,3.457,3.4586,3.4633,3.4655,3.4665,3.4686,3.469,3.4739,3.4747,3.4778,3.4811,3.4819,3.4822,3.4832,3.4895,3.4895,3.4895,3.4861,3.4859,3.4857,0,0,0,0,0,3.4494,3.4503,3.4518,3.4529,3.4595,3.4633,3.4642,3.4678,3.4686,3.4693,3.4725,3.4746,3.4816,3.4814,3.4823,3.4827,3.4895,3.4895,3.4895,3.4862,3.4859,3.4857,0,0,0,0,0,0,3.4447,3.451,3.4527,3.4554,3.4588,3.4641,3.4651,3.4673,3.4704,3.4706,3.4748,3.4759,3.4785,3.4809,3.4805,3.4847,3.4858,3.486,3.483,3.4828,3.4825,3.4819,3.4834,0,0,0,0,0,3.444,3.4467,3.4521,3.4539,3.4556,3.46,3.4618,3.4643,3.468,3.4694,3.4728,3.4762,3.4793,3.4811,3.4841,3.4865,3.4878,3.4873,3.4871,3.4869,3.487,3.4887,3.4886,3.4895,3.4895,3.4895,0,0,3.4425,3.4464,3.4477,3.4531,3.456,3.4587,3.4612,3.4639,3.4659,3.4698,3.4729,3.4756,3.4796,3.4824,3.4838,3.4845,3.487,3.4869,3.4866,3.4869,3.4887,3.4886,3.4885,3.4895,3.4895,3.4895,0,0,3.4413,3.4444,3.4464,3.4494,3.4539,3.4569,3.4574,3.4625,3.4645,3.4677,3.4708,3.4732,3.4783,3.4812,3.4833,3.4835,3.4856,3.4844,3.4832,3.4848,3.4847,3.4847,3.4849,3.485,3.4845,3.4844,3.4844,0,3.4389,3.4432,3.4471,3.4498,3.4521,3.4559,3.4581,3.4607,3.4659,3.4674,3.4682,3.4748,3.4778,3.4814,3.4815,3.483,3.4838,3.4838,3.4844,3.4844,3.4844,3.4847,3.4848,3.4843,3.4843,3.4843,3.4843,0,3.4401,3.443,3.4441,3.4493,3.4517,3.4541,3.4584,3.4604,3.4627,3.4657,3.4691,3.4729,3.4769,3.4779,3.4801,3.4819,3.4822,3.4836,3.4849,3.4841,3.4845,3.4846,3.484,3.4841,3.4841,3.4842,0,0,3.436,3.4436,3.4439,3.4465,3.4519,3.4542,3.4568,3.4609,3.4626,3.4661,3.4685,3.4728,3.4743,3.4767,3.4792,3.4806,3.4809,3.4819,3.4821,3.4817,3.4833,3.4823,3.4824,3.4823,3.4823,3.4824,3.4831,0,3.4356,3.4406,3.4444,3.4479,3.4508,3.4546,3.4569,3.4605,3.4634,3.4662,3.4694,3.4725,3.474,3.4756,3.4771,3.4805,3.4812,3.4805,3.4846,3.4847,3.4835,3.4825,3.4814,3.4819,3.4832,3.4832,3.4832,0,3.4359,3.4395,3.4434,3.4488,3.4502,3.4521,3.4564,3.459,3.4632,3.4652,3.4681,3.4709,3.4738,3.4748,3.479,3.4784,3.4804,3.4823,3.4824,3.483,3.4839,3.4832,3.4821,3.4822,3.4835,3.4834,3.4834,0,3.4327,3.4386,3.4418,3.4438,3.4501,3.4515,3.4541,3.4584,3.4607,3.4644,3.4659,3.4698,3.4719,3.4749,3.4786,3.479,3.4826,3.4838,3.4844,3.4843,3.485,3.4849,3.4843,3.486,3.486,3.486,3.486,0,3.432,3.4343,3.4405,3.4424,3.4451,3.4495,3.452,3.455,3.4588,3.4614,3.4649,3.4673,3.4721,3.475,3.478,3.4812,3.482,3.4838,3.4846,3.4836,3.4834,3.4849,3.485,3.486,3.486,3.486,3.486,0,3.4289,3.4332,3.4369,3.4427,3.4442,3.446,3.451,3.453,3.4562,3.4595,3.4605,3.4655,3.4692,3.4733,3.4782,3.4803,3.4833,3.4843,3.482,3.4824,3.4829,3.4828,3.4833,3.4837,3.485,3.485,3.4849,0,3.4282,3.4301,3.4362,3.4383,3.441,3.4442,3.4467,3.4511,3.4536,3.4587,3.4602,3.4642,3.4677,3.4734,3.4774,3.4813,3.4826,3.4825,3.4832,3.4822,3.4828,3.4827,3.483,3.4823,3.4822,3.4822,3.4822,0,3.4266,3.4287,3.4322,3.4365,3.4394,3.443,3.4467,3.4482,3.4533,3.4559,3.4599,3.4626,3.4679,3.4718,3.4763,3.479,3.4815,3.482,3.4823,3.4813,3.48,3.4809,3.4815,3.4819,3.4819,3.482,3.482,3.482,3.4248,3.4268,3.4315,3.4354,3.4387,3.4421,3.4444,3.4481,3.4515,3.4562,3.4586,3.4626,3.467,3.4733,3.476,3.4792,3.4799,3.4804,3.4805,3.4806,3.4804,3.4794,3.48,3.48,3.48,3.48,3.48,0,3.4235,3.4268,3.4304,3.4356,3.4386,3.4409,3.4451,3.4476,3.4511,3.455,3.4585,3.4631,3.4671,3.4715,3.4758,3.4775,3.4787,3.4785,3.4784,3.4791,3.4794,3.4788,3.4774,3.4774,3.4774,3.4774,3.4774,3.4774,3.4232,3.4268,3.4295,3.4347,3.438,3.4421,3.4444,3.4476,3.4508,3.4559,3.4593,3.4623,3.4665,3.4711,3.4749,3.4761,3.4776,3.477,3.4785,3.4788,3.479,3.4792,3.4786,3.4772,3.4772,3.4779,3.4779,3.4779]}]]